This is the latest recevied weather packets stored in our database for station/object EA7OC-10. If no packets are shown the sender has not sent any weather packets the latest 10 day(s).
| Time | Temp. | Humidity | Pressure | Rain* | Wind** | Luminosity | Snow |
|---|---|---|---|---|---|---|---|
| 1787884661 | 18.89° C | 34% | 1020.7 hPa | - | - | - | - |
| 1787883761 | 18.89° C | 34% | 1020.5 hPa | - | - | - | - |
| 1787882861 | 18.89° C | 34% | 1020.6 hPa | - | - | - | - |
| 1787881961 | 18.89° C | 34% | 1020.6 hPa | - | - | - | - |
| 1787881060 | 19.44° C | 34% | 1020.7 hPa | - | - | - | - |
| 1787880160 | 20° C | 34% | 1020.7 hPa | - | - | - | - |
| 1787879260 | 20° C | 34% | 1020.7 hPa | - | - | - | - |
| 1787878360 | 20.56° C | 34% | 1020.8 hPa | - | - | - | - |
| 1787877460 | 20.56° C | 34% | 1020.8 hPa | - | - | - | - |
| 1787876560 | 20.56° C | 33% | 1020.8 hPa | - | - | - | - |
| 1787875660 | 21.11° C | 34% | 1020.9 hPa | - | - | - | - |
| 1787874759 | 21.67° C | 33% | 1020.7 hPa | - | - | - | - |
| 1787873859 | 21.67° C | 33% | 1020.8 hPa | - | - | - | - |
| 1787872959 | 21.67° C | 34% | 1020.5 hPa | - | - | - | - |
| 1787872059 | 22.22° C | 34% | 1020.4 hPa | - | - | - | - |
| 1787871159 | 22.22° C | 33% | 1020.4 hPa | - | - | - | - |
| 1787870259 | 22.78° C | 33% | 1020.1 hPa | - | - | - | - |
| 1787869359 | 23.33° C | 33% | 1020 hPa | - | - | - | - |
| 1787868459 | 23.33° C | 33% | 1019.9 hPa | - | - | - | - |
| 1787867558 | 23.89° C | 33% | 1020 hPa | - | - | - | - |
| 1787866658 | 23.89° C | 33% | 1019.9 hPa | - | - | - | - |
| 1787865758 | 24.44° C | 33% | 1019.8 hPa | - | - | - | - |
| 1787863972 | 25.56° C | 33% | 1019.6 hPa | - | - | - | - |
| 1787863071 | 25.56° C | 33% | 1019.4 hPa | - | - | - | - |
| 1787862171 | 26.11° C | 33% | 1019.1 hPa | - | - | - | - |
* Rain since midnight (hover to see other rain measurements)
** Current wind speed in m/s (hover to see current wind gust speed)